Погода в Великом

Россия / Ярославская область     57°20′56″N   39°46′26″E
темп.,
°C
ветер,
м/с
пор.,
м/с
влажн.,
%
обл.,
%
осадки,
мм/ч
давл.,
гПа
погр.,
м
13 июня, вс
вс1300:00+14ююв359667 0.0 100782
03:00+13ю229696 0.0 100621
06:00+15ю229499 0.0 100698
09:00+19ююв238598 0.9 1006338
12:00+21ю237498 3.2 1006512
15:00+22ю2366100 5.3 10061001
18:00+22ююз2273100 0.1 1006947
21:00+17з228699 3.1 100712
14 июня, пн
пн1400:00+15зюз2290100 0.8 100812
03:00+14юз22915 0.8 101017
06:00+16юз238922 0.0 101195
09:00+19юз2486100 0.0 1013209
12:00+24юз34575 0.3 10131109
15:00+25ююз245387 0.3 10131784
18:00+21ююз3577100 0.0 1013111
21:00+19ссз4884100 0.1 1014214
15 июня, вт
вт1500:00+16ссз11905 0.6 101511
03:00+14ссз22925 0.6 101515
06:00+17зюз11870 0.0 101574
09:00+21зюз22760 0.0 1014434
12:00+23зюз127266 1.8 1013460
15:00+24юз346921 6.9 1011879
18:00+24ююз237216 0.1 1010656
21:00+19ю3387100 1.6 101042
16 июня, ср
ср1600:00+16зюз229464 4.3 100917
03:00+17сз2291100 5.1 100924
06:00+18ссз269298 0.0 1010204
09:00+19ссз567735 0.1 1010470
12:00+17ссз51182100 0.0 1012574
15:00+20ссз786572 0.0 10141264
18:00+20ссв37690 0.0 1014730
21:00+13ссз413681 0.0 1016251
17 июня, чт
чт1700:00+12с33684 0.0 101836
03:00+10ссз36705 0.0 102088
06:00+12ссз38790 0.0 1022217
09:00+17с45640 0.0 1023499
12:00+20с45540 0.0 10231222
15:00+21с35510 0.0 10231590
18:00+21ссз24649 0.0 1024495
21:00+15ссз2273100 0.0 102418